Location: Izdebno
(52.6670°N, 16.2170°E)
Time: 02:50:29
(UTC+02:00)

SR - Pass Details

Date: 28 February 2024
Orbit: 577 x 862 km, 66.7° (Epoch: 22 April)

Event Time Altitude Azimuth Distance (km) Brightness Sun altitude
Rises 23:44:08 0° 315° (NW) 3,215 ? -45.0°
Enters shadow 23:45:15 - 311° (NW) 2,809 ? -45.0°
Reaches altitude 10° 23:46:57 10° 302° (WNW) 2,232 - -45.0°
Maximum altitude 23:51:00 25° 249° (WSW) 1,399 - -45.1°
Drops below altitude 10° 23:54:47 10° 195° (SSW) 2,068 - -45.1°
Sets 23:57:18 0° 182° (S) 2,927 - -45.2°
